sat.trackr.live / text

‹ back to catalog

STARLINK-33980

NORAD 63930 · 2025-098E

PAYLOAD ACTIVE UNKNOWN

§ Identity

Operator
Country
US
Launch date
2025-05-13
Launch site
AFWTR
Launch vehicle
Mass (kg)
RCS (m²)

Purposes: comms

External: N2YO · Heavens-Above · Gunter

§ Orbital elements

Epoch: 2026-09-20T01:36:59.524704Z

Period
94.15 min
Inclination
70.0005°
Eccentricity
0.0003231
Mean motion
15.29541078 rev/d
Perigee alt
475.0 km
Apogee alt
479.4 km
Semi-major
6,855.3 km
B*
2.2460e-4
RAAN
142.1674°
Arg perigee
271.2943°
Mean anomaly
88.7862°
Rev number
7,574

§ Raw data

STARLINK-339801 63930U 25098E   26263.06735561  .00006326  00000+0  22460-3 0  99902 63930  70.0005 142.1674 0003231 271.2943  88.7862 15.29541078 75741

JSON: /api/v1/satellites/63930 · /tle

For live sub-satellite position, see the globe view (requires WebGL).

§ Visibility from observer

Set your observer location to see the next 7 days of passes ≥ 10°. The values pass through the URL so the page stays shareable.

No JS? Fill the form by hand. The geolocation button needs JavaScript.